Regional Weather Roundup
Issued by NWS

Home | Current Version | Previous Version | Text Only | Print | Product List | Glossary On
Versions: 1 2 3 4 5 6 7 8 9 10 11 12 13 14 15 16 17 18 19 20 21 22 23 24 25 26 27 28 29 30 31 32 33 34 35 36 37 38 39 40 41 42 43 44 45 46 47 48 49 50
028
ASUS43 KLMK 292310
RWRKY
KENTUCKY REGIONAL WEATHER ROUNDUP
NATIONAL WEATHER SERVICE LOUISVILLE KY
700 PM EDT SAT APR 29 2017

NOTE "FAIR" INDICATES FEW OR NO CLOUDS BELOW 12,000 FEET
WITH NO SIGNIFICANT WEATHER AND/OR OBSTRUCTIONS TO VISIBILITY.

KYZ001>023-026-027-061>063-070>075-300000-
WESTERN AND SOUTH CENTRAL KENTUCKY

CITY           SKY/WX    TMP DP  RH WIND       PRES   REMARKS
PADUCAH        SUNNY     84  65  52 S20G29    29.82R
HENDERSON        N/A    N/A N/A N/A MISG        N/A
OWENSBORO      SUNNY     86  67  52 S16G23    29.85F
HOPKINSVILLE   SUNNY     86  65  50 S15G23    29.89R
BOWLING GREEN  SUNNY     88  66  48 S18G25    29.91F HX  90
GLASGOW        SUNNY     85  64  50 S7        29.92F
$$

KYZ024-025-028>034-038-045-046-053-300000-
NORTH CENTRAL KENTUCKY

CITY           SKY/WX    TMP DP  RH WIND       PRES   REMARKS
LOUISVILLE/SDF CLOUDY    86  67  52 SE14      29.90F
LOUISVILLE/LOU CLOUDY    85  68  56 SE8       29.91F
FORT KNOX      SUNNY     84  67  55 SE12      29.89F
$$

KYZ035>037-039>044-047>052-055>060-089>105-300000-
NORTHEAST KENTUCKY

CITY           SKY/WX    TMP DP  RH WIND       PRES   REMARKS
LEXINGTON      CLOUDY    83  64  52 SE8       29.97F
COVINGTON      PTSUNNY   79  66  64 SE9       29.97F
FRANKFORT      PTSUNNY   82  67  60 SE6       29.95F
$$

KYZ054-064>069-076>088-106>120-300000-
SOUTHEAST KENTUCKY

CITY           SKY/WX    TMP DP  RH WIND       PRES   REMARKS
JACKSON        CLOUDY    85  61  44 SE5       30.02F
LONDON         MOSUNNY   84  63  49 S7        30.01S
SOMERSET       CLOUDY    82  59  44 S7        29.98F
MIDDLESBORO    SUNNY     87  62  41 SW3       30.02S
MONTICELLO     PTCLDY    85  65  51 SE9       29.99F
$$





USA.gov is the U.S. government's official web portal to all federal, state and local government web resources and services.